Starlink 2330

operational
NORAD ID: 47874 Int'l Des: 2021-021 Owner: SPXS Country: US Constellation: starlink
LEOCIRCULARSTARLINK_TYPE

关于 Starlink 2330

正在加载描述...

实时位置

正在加载3D地球...

即将过境

高度历史

Altitude vs Time

uPlot chart will show altitude changes over time

两行轨道根数

1 47874U 21021Q 25304.78275317 .00001692 00000-0 13243-3 0 9994
2 47874 53.0566 75.3080 0001686 101.4877 258.6301 15.06406225257537
Epoch: Oct 31, 2025 • Age: 40 hours

当前状态

高度 549.6 km
速度 7.59 km/s
星下点 -6.39°S, 137.27°W
发射日期 Mar 14, 2021
运行时间 4.6 years
类型 internet

技术详情

分类 Payload
质量 260.00 kg
干质量 248.00 kg
总质量 260.00 kg
长度 0.20 m
直径 2.80 m
跨度 9.00 m
形状 Box + pan
制造商 SPXS
平台类型 Starlink
阶段状态 In Orbit
所有者/国家 SPXS/US

大型星座

Loading constellations...